This is the latest recevied weather packets stored in our database for station/object 4S6DRJ-13. If no packets are shown the sender has not sent any weather packets the latest 10 day(s).
| Time | Temp. | Humidity | Pressure | Rain* | Wind** | Luminosity | Snow |
|---|---|---|---|---|---|---|---|
| 1788152188 | 30.56° C | 71% | 1009.5 hPa | 0 mm | 2.24 m/s, 325° | 1112 W/m² | - |
| 1788152126 | 30.56° C | 70% | 1009.7 hPa | 0 mm | 2.24 m/s, 302° | 1113 W/m² | - |
| 1788152065 | 30.56° C | 70% | 1009.8 hPa | 0 mm | 2.68 m/s, 331° | 1118 W/m² | - |
| 1788152004 | 31.11° C | 71% | 1009.7 hPa | 0 mm | 1.79 m/s, 295° | 447 W/m² | - |
| 1788151943 | 31.11° C | 70% | 1009.8 hPa | 0 mm | 1.34 m/s, 279° | 1103 W/m² | - |
| 1788151883 | 31.11° C | 69% | 1009.5 hPa | 0 mm | 1.34 m/s, 297° | 374 W/m² | - |
| 1788151822 | 31.11° C | 69% | 1009.7 hPa | 0 mm | 2.24 m/s, 277° | 484 W/m² | - |
| 1788151760 | 31.11° C | 68% | 1009.6 hPa | 0 mm | 1.34 m/s, 293° | 861 W/m² | - |
| 1788151699 | 31.11° C | 67% | 1009.6 hPa | 0 mm | 1.34 m/s, 217° | 1104 W/m² | - |
| 1788151638 | 31.11° C | 69% | 1009.7 hPa | 0 mm | 1.34 m/s, 223° | 1102 W/m² | - |
| 1788151578 | 31.11° C | 70% | 1009.8 hPa | 0 mm | 1.34 m/s, 299° | 981 W/m² | - |
| 1788151516 | 31.11° C | 70% | 1009.6 hPa | 0 mm | 1.34 m/s, 249° | 486 W/m² | - |
| 1788151455 | 31.11° C | 71% | 1009.7 hPa | 0 mm | 0.89 m/s, 303° | 983 W/m² | - |
| 1788151394 | 31.11° C | 71% | 1009.7 hPa | 0 mm | 1.34 m/s, 320° | 974 W/m² | - |
| 1788151333 | 31.11° C | 70% | 1009.7 hPa | 0 mm | 2.24 m/s, 309° | 910 W/m² | - |
| 1788151272 | 31.11° C | 71% | 1009.8 hPa | 0 mm | 3.13 m/s, 329° | 985 W/m² | - |
| 1788151211 | 31.11° C | 72% | 1009.7 hPa | 0 mm | 0.89 m/s, 217° | 1103 W/m² | - |
| 1788151150 | 30.56° C | 73% | 1009.7 hPa | 0 mm | 1.79 m/s, 307° | 954 W/m² | - |
| 1788151089 | 30.56° C | 73% | 1009.8 hPa | 0 mm | 0.45 m/s, 229° | 978 W/m² | - |
| 1788151028 | 30.56° C | 72% | 1009.8 hPa | 0 mm | 0.89 m/s, 215° | 873 W/m² | - |
| 1788150967 | 30.56° C | 73% | 1009.7 hPa | 0 mm | 0.89 m/s, 296° | 945 W/m² | - |
| 1788150906 | 30.56° C | 72% | 1009.7 hPa | 0 mm | 2.68 m/s, 283° | 957 W/m² | - |
| 1788150845 | 30.56° C | 73% | 1009.7 hPa | 0 mm | 0 m/s | 624 W/m² | - |
| 1788150784 | 30.56° C | 73% | 1009.6 hPa | 0 mm | 1.34 m/s, 210° | 1101 W/m² | - |
| 1788150722 | 30.56° C | 73% | 1009.7 hPa | 0 mm | 0.89 m/s, 227° | 283 W/m² | - |
* Rain latest hour (hover to see other rain measurements)
** Current wind speed in m/s (hover to see current wind gust speed)